Location: Esp�s Alto
(42.4476°N, 0.5876°E)
Time: 14:52:21
(UTC+00:00)

Cosmos 1437 Rocket - Pass Details

Date: 22 October 2019
Orbit: 507 x 562 km, 81.2° (Epoch: 16 November)

Event Time Altitude Azimuth Distance (km) Brightness Sun altitude
Rises 04:11:44 0° 168° (SSE) 2,603 6.3 -24.0°
Reaches altitude 10° 04:13:59 10° 159° (SSE) 1,720 5.5 -23.6°
Maximum altitude 04:17:24 34° 94° (E) 858 4.4 -23.0°
Drops below altitude 10° 04:20:50 10° 28° (NNE) 1,731 5.8 -22.3°
Sets 04:23:06 0° 19° (NNE) 2,624 6.6 -21.9°
